User: anonymous   Login
Location: Caltech
(34.1382°N, 118.1253°W)
Time: 18:44:07
(UTC-07:00)
Language:

Oscar 11 - Orbit

View from above orbital plane
View from above orbital plane
View from above satellite
View from above satellite

Ground track
Ground track

The orbit data is extracted from the following two-line orbital elements,

1 14781U 84021B   16151.69063510  .00000180  00000-0  28582-4 0  9998
2 14781  97.7508 204.2285 0008953  22.0569 338.1028 14.82745613733662
Epoch (UTC): 30 May 2016 16:34:30
Eccentricity: 0.0008953
inclination: 97.7508°
perigee height: 614 km
apogee height: 627 km
right ascension of ascending node: 204.2285°
argument of perigee: 22.0569°
revolutions per day: 14.82745613
mean anomaly at epoch: 338.1028°
orbit number at epoch: 73366

The dashed part of the orbit path shows where the satellite is in the earth's shadow,  

DLR